Retour au catalogue

FENGYUN 1C DEB

ActifPO
NORAD 31673·DEBRIS·🇨🇳 China

Lancé May 10, 1999 depuis Taiyuan Satellite Launch Center

Loading…

Prochains Passages (prochaines 24 heures)

TLE

FraisSource: Space-Track

Époque: Sep 13, 2026, 21:06 UTC

1 31673U 99025CCF 26256.87975752  .00000328  00000-0  12977-3 0  9998
2 31673  99.3499 118.1903 0124326 336.5955  22.9597 14.32278755688293

Suivez FENGYUN 1C DEB en temps réel avec AllMySat

Download on the App Store